Regional Weather Roundup
Issued by NWS

Home | Current Version | Previous Version | Text Only | Print | Product List | Glossary Off
Versions: 1 2 3 4 5 6 7 8 9 10 11 12 13 14 15 16 17 18 19 20 21 22 23 24 25 26 27 28 29 30 31 32 33 34 35 36 37 38 39 40 41 42 43 44 45 46 47 48 49 50

000
ASUS43 KIND 211600
RWRIN

WEATHER ROUNDUP FOR INDIANA
NATIONAL WEATHER SERVICE INDIANAPOLIS IN
1200 PM EDT FRI JUL 21 2017

NOTE: "FAIR" INDICATES FEW OR NO CLOUDS BELOW 12,000 FEET WITH NO
SIGNIFICANT WEATHER AND/OR OBSTRUCTIONS TO VISIBILITY.

* - STATION DOES NOT REPORT WEATHER SUCH AS PRECIPITATION OR FOG.

+ - STATION NOT QUALITY CONTROLLED BY THE NATIONAL WEATHER SERVICE.
    USE DATA WITH CAUTION...ESPECIALLY DEWPOINT AND RELATIVE
    HUMIDITY OBSERVATIONS.

INZ001>003-010>013-019-020-211700-
NORTHWEST INDIANA

CITY           SKY/WX    TMP DP  RH WIND       PRES   REMARKS
GARY /AIRPORT/ PTSUNNY   84  70  61 VRB7      30.01R
MONTICELLO +   SUNNY     80  74  81 SW7       30.00S
RENSSELAER +   CLOUDY    79  70  73 W8        30.03R

$$

LMZ046-743>745-211700-
SOUTHERN LAKE MICHIGAN

STATION/POSITION TIME  TEMP    WIND        PRES    WAVE
                       AIR SEA DIR/SP/G            HT
                 (UTC) (F)     (DEG/KT/KT) (MB)    (FT)
BURNS HARBOR     1540   75     340/  6/  7 1016.3R
MICHIGAN CITY    1530   78     300/  5/  5   N/A
5NW MICH CITY    1550   76 76  330/  6/  6   N/A     1

$$

INZ004-005-014>016-021>024-211700-
NORTH CENTRAL INDIANA

CITY           SKY/WX    TMP DP  RH WIND       PRES   REMARKS
ELKHART        MOSUNNY   81  63  54 NE9       30.00R
GOSHEN         PTSUNNY   81  67  62 E6        30.00R
SOUTH BEND     MOSUNNY   81  66  60 SE5       30.01R
WARSAW +       MOSUNNY   79  68  69 E5        30.01R

$$

INZ006>009-017-018-025>027-211700-
NORTHEAST INDIANA

CITY           SKY/WX    TMP DP  RH WIND       PRES   REMARKS
FORT WAYNE     PTSUNNY   82  69  64 E7        29.99S
KENDALLVILLE + PTSUNNY   80  71  72 E6        30.01R

$$

INZ028-029-035-036-043>045-051>053-211700-
WEST CENTRAL INDIANA

CITY           SKY/WX    TMP DP  RH WIND       PRES   REMARKS
GREENCASTLE +  SUNNY     82  70  65 S5        30.02R
LAFAYETTE      MOSUNNY   80  72  76 VRB3      30.01R
TERRE HAUTE    SUNNY     87  73  62 S7        30.00S

$$

INZ030>032-037>040-046>048-054>057-064-065-211700-
CENTRAL INDIANA

CITY           SKY/WX    TMP DP  RH WIND       PRES   REMARKS
ANDERSON       CLOUDY    77  72  83 SW3       30.02S
COLUMBUS       MOSUNNY   77  72  83 CALM      30.03S
FRANKFORT +    CLOUDY    82  72  71 SW3       30.05R
GREENWOOD *+   CLOUDY    78  69  74 S10       30.03S
INDIANAPOLIS   PTSUNNY   80  71  74 S9        30.01S
-EAGLE CREEK   CLOUDY    80  69  69 SE8       30.01S
KOKOMO +       CLOUDY    79  70  74 MISG      30.03R
MT COMFORT *+  CLOUDY    75  70  83 S8        30.01F
SHELBYVILLE    CLOUDY    80  69  69 S7        30.02S

$$

INZ033-034-041-042-049-050-058-059-211700-
EAST CENTRAL INDIANA

CITY           SKY/WX    TMP DP  RH WIND       PRES   REMARKS
MUNCIE         CLOUDY    79  71  76 SW6       30.02R
RICHMOND +     CLOUDY    70  68  94 SW8       30.05R

$$

INZ060-061-067>069-081>083-085>088-211700-
SOUTHWEST INDIANA

CITY           SKY/WX    TMP DP  RH WIND       PRES   REMARKS
EVANSVILLE     SUNNY     91  75  59 MISG      30.01F HX 101
HUNTINGBURG *+ CLOUDY    86  78  77 SE14      30.02F HX  98

$$

INZ062-063-066-070>080-084-089>092-211700-
SOUTH CENTRAL AND SOUTHEAST INDIANA

CITY           SKY/WX    TMP DP  RH WIND       PRES   REMARKS
BLOOMINGTON    CLOUDY    86  71  60 SE8       30.02S
MADISON *+     PTSUNNY   82  72  69 S9        30.04F
SEYMOUR +      PTSUNNY   86  73  66 CALM      30.02S

$$





USA.gov is the U.S. government's official web portal to all federal, state and local government web resources and services.